Погода в Идзумо

Япония     35°19′58″N   132°45′59″E
темп.,
°C
ветер,
м/с
пор.,
м/с
влажн.,
%
обл.,
%
осадки,
мм/ч
давл.,
гПа
погр.,
м
19 мая, ср
ср1900:00+14ююз2298100 0.0 101028
03:00+13юз1297100 0.0 101224
06:00+14ююз2293100 0.0 101243
09:00+16зюз1381100 0.0 1012344
12:00+20зсз336561 0.0 1012767
15:00+22зсз224857 0.0 1012804
18:00+17зсз118187 0.0 101385
21:00+13юв2289100 0.0 101420
20 мая, чт
чт2000:00+14ююв2272100 0.0 101418
03:00+15юв2269100 0.0 101323
06:00+16вюв2275100 0.0 101342
09:00+17юв1178100 0.0 101221
12:00+15вюв31291100 1.8 1010583
15:00+14всв1598100 9.7 1008268
18:00+15ююв2598100 3.4 1007198
21:00+16ююв2598100 12.9 1008126
21 мая, пт
пт2100:00+17ю2498100 7.5 1006113
03:00+18ю51594100 10.4 1003995
06:00+18ююз3898100 7.3 1005352
09:00+19зюз2798100 8.6 1005381
12:00+17зюз41197100 1.3 1005669
15:00+17зюз41193100 1.4 1006741
18:00+16зюз379388 0.1 1006495
21:00+16зюз41189100 0.4 10071020
22 мая, сб
сб2200:00+14юз4119322 0.1 1007754
03:00+14зюз4119282 0.3 1007737
06:00+13з2598100 0.8 1008481
09:00+14зсз3696100 2.3 1009597
12:00+14з369351 1.1 1010653
15:00+18зсз56646 1.8 10091203
18:00+16з37795 0.0 1010686
21:00+12ююз22960 0.0 101224
23 мая, вс
вс2300:00+11ююз239431 0.0 101242
03:00+12ю238997 0.0 101244
06:00+14ю22822 0.0 101251
09:00+22з365925 0.0 1013621
12:00+24зсз345128 0.0 1013733
15:00+23зсз34560 0.0 1013661
18:00+21з22780 0.0 101399
21:00+16ююв218677 0.0 101411